Tracking 20228 objects as of 17-Jan-2020
HD Live streaming from Space Station
objects crossing your sky now

FENGYUN 1C DEB

Track FENGYUN 1C DEB now!
10-day predictions


NORAD ID: 30442
Int'l Code: 1999-025AFD
Perigee: 813.7 km
Apogee: 911.5 km
Inclination: 99.0 °
Period: 102.0 minutes
Semi major axis: 7233 km
RCS: 0.0217 m2 (small)
Launch date: May 10, 1999
Source: People's Republic of China (PRC)
Launch site: Taiyaun Space Center, China (TSC)

Note: This is SATELLITE DEBRIS
aabbcc
Your satellite tracking list
Your tracking list is empty




NASA's NSSDC Master Catalog

Two Line Element Set (TLE):
1 30442U 99025AFD 20017.12008054  .00000593  00000-0  34703-3 0  9995
2 30442  98.9610  83.0412 0067629 306.8736  52.6248 14.11151310666945
Source of the keplerian elements: AFSPC